Flag for Denmark Weather past 2 weeks in Vejle, Denmark

Now
75 °F

Passing clouds.


Feels Like: 78 °F
Forecast: 56 / 79 °F
Wind: 13 mph from North

Location: Billund Lufthavn

Current Time: Jul 28, 2014 at 8:46:20 PM

Latest Report: Jul 28, 2014 at 8:20 PM


Visibility: N/A

Pressure: 29.95 "Hg

Humidity: 57%

Dew point: 59 °F

Location of VejleLocation

Historic Weather in Vejle — Graph

°F

Vejle temperature yesterday

Maximum temperature yesterday: 75 °F (at 10:50 AM)
Minimum temperature yesterday: 59 °F (at 11:20 PM)
Average temperature yesterday: 68 °F

Past Weeks' High & Low Weather Summary

 TemperatureHumidityPressure
High82 °F (Jul 19, 1:50 PM)100% (Jul 13, 9:50 PM)30.27 "Hg (Jul 13, 9:50 PM)
Low46 °F (Jul 16, 4:50 AM)30% (Jul 23, 3:50 PM)29.50 "Hg (Jul 14, 3:20 AM)
Average68 °F71%30.04 "Hg
* Reported Jul 13 7:20 PM — Jul 28 7:50 PM, Vejle, Weather by CustomWeather, © 2014

Note: Actual official high and low records may vary slightly from our data, if they occured in-between our weather recording intervals... More about our weather records

Advertising

Vejle weather history for previous 24 hours

 ConditionsComfort  
Time TempWeatherWind HumidityBarometerVisibility
7:50 PM
Jul 28
77 °FPassing clouds.10 mph54%29.92 "HgN/A
7:20 PM79 °FPassing clouds.7 mph51%29.92 "HgN/A
6:50 PM79 °FScattered clouds.9 mph48%29.92 "HgN/A
5:50 PM77 °FBroken clouds.5 mph51%29.95 "HgN/A
5:20 PM79 °FBroken clouds.1 mph45%29.95 "HgN/A
4:50 PM79 °FScattered clouds.5 mph48%29.95 "HgN/A
4:20 PM77 °FScattered clouds.3 mph51%29.95 "HgN/A
3:50 PM77 °FScattered clouds.6 mph51%29.95 "HgN/A
3:20 PM79 °FScattered clouds.3 mph51%29.95 "HgN/A
2:50 PM77 °FScattered clouds.7 mph54%29.98 "HgN/A
2:20 PM77 °FScattered clouds.3 mph51%29.98 "HgN/A
1:50 PM77 °FScattered clouds.5 mph54%29.98 "HgN/A
1:20 PM75 °FScattered clouds.6 mph57%29.98 "HgN/A
12:50 PM73 °FScattered clouds.6 mph65%29.98 "HgN/A
12:20 PM75 °FScattered clouds.2 mph61%29.98 "HgN/A
11:50 AM73 °FScattered clouds.2 mph69%29.98 "HgN/A
11:20 AM72 °FScattered clouds.5 mph69%29.98 "HgN/A
10:50 AM70 °FScattered clouds.3 mph83%29.98 "HgN/A
10:20 AM68 °FPartly sunny.6 mph83%29.98 "HgN/A
9:50 AM68 °FPartly sunny.6 mph88%29.98 "HgN/A
9:20 AM68 °FPartly sunny.6 mph94%29.98 "Hg5 mi
8:50 AM66 °FFog.3 mph88%29.98 "Hg3 mi
8:20 AM64 °FFog.5 mph94%29.98 "Hg1 mi
7:55 AM64 °FFog.3 mph94%29.98 "Hg1 mi
7:20 AM63 °FFog.2 mph94%29.98 "Hg0 mi
6:50 AM61 °FFog.No wind94%29.98 "Hg0 mi
6:20 AM61 °FFog.No wind94%29.98 "Hg0 mi
5:50 AM61 °FFog.No wind94%29.98 "Hg0 mi
5:20 AM61 °FFog.2 mph94%29.98 "Hg0 mi
4:20 AM61 °FFog.No wind94%29.95 "Hg0 mi
3:50 AM61 °FFog.No wind94%29.98 "Hg0 mi
3:20 AM61 °FFog.2 mph94%29.95 "Hg0 mi
2:50 AM61 °FFog.No wind94%29.95 "Hg0 mi
2:20 AM59 °FPassing clouds.No wind94%29.98 "Hg3 mi
1:20 AM59 °FLight fog.No wind94%29.98 "Hg3 mi
12:50 AM59 °FLight fog.No wind94%29.98 "HgN/A
12:20 AM61 °FFog.No wind94%29.98 "HgN/A
11:50 PM
Jul 27
59 °FFog.No wind94%29.95 "HgN/A
11:20 PM59 °FFog.No wind94%29.95 "HgN/A
10:50 PM63 °FFog.2 mph94%29.98 "HgN/A
10:20 PM64 °FSunny.2 mph88%29.98 "Hg10 mi
9:50 PM63 °FSunny.2 mph94%29.98 "Hg10 mi
9:20 PM66 °FBroken clouds.3 mph83%29.95 "HgN/A
8:50 PM66 °FScattered showers. Broken clouds.1 mph78%29.95 "HgN/A
8:20 PM68 °FThunderstorms. Broken clouds.3 mph88%29.95 "HgN/A
Weather by CustomWeather, © 2014

See weather overviewHow to use our weather pages